This is the latest recevied weather packets stored in our database for station/object KB9MLJ. If no packets are shown the sender has not sent any weather packets the latest 10 day(s).
| Time | Temp. | Humidity | Pressure | Rain* | Wind** | Luminosity | Snow |
|---|---|---|---|---|---|---|---|
| 1777344754 | 15° C | 99% | 1005 hPa | 0 mm | - | 0 W/m² | - |
| 1777344450 | 15° C | 99% | 1005.4 hPa | 0 mm | - | 0 W/m² | - |
| 1777344149 | 15° C | 99% | 1005 hPa | 0 mm | - | 0 W/m² | - |
| 1777343845 | 15° C | 99% | 1004.7 hPa | 0 mm | - | 0 W/m² | - |
| 1777343542 | 15° C | 99% | 1004 hPa | 0 mm | - | 0 W/m² | - |
| 1777343240 | 15° C | 99% | 1004.3 hPa | 0 mm | - | 0 W/m² | - |
| 1777342937 | 15° C | 99% | 1004.3 hPa | 0 mm | - | 0 W/m² | - |
| 1777342634 | 15° C | 99% | 1004 hPa | 0 mm | - | 0 W/m² | - |
| 1777342330 | 15° C | 99% | 1003.7 hPa | 0 mm | - | 0 W/m² | - |
| 1777342028 | 15° C | 99% | 1004 hPa | 0 mm | - | 0 W/m² | - |
| 1777341724 | 15.56° C | 99% | 1003.7 hPa | 0 mm | - | 0 W/m² | - |
| 1777341421 | 15.56° C | 99% | 1003.3 hPa | 0.76 mm | - | 0 W/m² | - |
| 1777341117 | 15.56° C | 99% | 1003 hPa | 0.76 mm | - | 0 W/m² | - |
| 1777340814 | 15.56° C | 99% | 1003 hPa | 0.76 mm | - | 0 W/m² | - |
| 1777340513 | 15.56° C | 99% | 1002.3 hPa | 0.76 mm | - | 0 W/m² | - |
| 1777340209 | 15.56° C | 99% | 1001.6 hPa | 0.76 mm | - | 0 W/m² | - |
| 1777339906 | 15.56° C | 99% | 1001.6 hPa | 0.76 mm | - | 0 W/m² | - |
| 1777339604 | 15.56° C | 99% | 1001.3 hPa | 0.76 mm | - | 0 W/m² | - |
| 1777339300 | 15.56° C | 99% | 1001 hPa | 0.76 mm | - | 0 W/m² | - |
| 1777338999 | 16.11° C | 98% | 1002.6 hPa | 0.51 mm | - | 0 W/m² | - |
| 1777338695 | 16.11° C | 98% | 1003.7 hPa | 0.51 mm | - | 0 W/m² | - |
| 1777338393 | 16.11° C | 98% | 1004.3 hPa | 0.25 mm | - | 0 W/m² | - |
| 1777338089 | 16.11° C | 98% | 1005.4 hPa | 0 mm | - | 0 W/m² | - |
| 1777337786 | 16.67° C | 97% | 1006.5 hPa | 12.95 mm | - | 0 W/m² | - |
| 1777337484 | 16.67° C | 97% | 1006.8 hPa | 12.45 mm | - | 0 W/m² | - |
* Rain latest hour (hover to see other rain measurements)
** Current wind speed in m/s (hover to see current wind gust speed)